Location: Mladá Boleslav
(50.4134°N, 14.9084°E)
Time: 20:27:30
(UTC+02:00)

KKS-1 - Visible Passes

Search period start: 26 May 2024 00:00
Search period end: 05 June 2024 00:00
Orbit: 628 x 639 km, 98.1° (Epoch: 25 May)

Date Brightness Start Highest point End Pass type
(mag) Time Alt. Az. Time Alt. Az. Time Alt. Az.
26 May ? 01:25:27 10° N 01:29:20 31° WNW 01:31:48 18° WSW visible
27 May ? 00:10:10 10° NNE 00:14:30 55° E 00:16:02 36° SSE visible
27 May ? 01:47:13 10° NNW 01:50:31 21° WNW 01:53:28 11° WSW visible
27 May ? 22:57:28 10° ENE 22:58:52 11° E 23:00:15 10° ESE visible
28 May ? 00:31:29 10° NNE 00:35:55 87° E 00:37:42 36° SSW visible
28 May ? 02:09:15 10° NNW 02:11:39 15° NW 02:14:02 10° W visible
28 May ? 23:17:30 10° NE 23:20:31 18° E 23:21:54 16° ESE visible
29 May ? 00:52:55 10° N 00:57:16 59° WNW 00:59:21 29° SW visible
29 May ? 23:38:19 10° NE 23:42:06 27° E 23:43:33 23° SE visible
30 May ? 01:14:27 10° N 01:18:33 38° WNW 01:21:00 20° WSW visible
30 May ? 23:59:23 10° NNE 00:03:36 43° E 00:05:12 30° SSE visible
31 May ? 01:36:08 10° N 01:39:45 26° WNW 01:42:39 14° WSW visible
01 Jun ? 00:20:37 10° NNE 00:25:01 69° ESE 00:26:50 34° S visible
01 Jun ? 01:57:59 10° NNW 02:00:54 18° WNW 02:03:48 10° W visible
01 Jun ? 23:07:08 10° NE 23:09:28 14° E 23:11:01 12° ESE visible
02 Jun ? 00:41:59 10° NNE 00:46:23 76° WNW 00:48:28 30° SSW visible
02 Jun ? 02:20:15 10° NNW 02:21:59 12° NW 02:23:42 10° WNW visible
02 Jun ? 23:27:39 10° NE 23:31:04 22° E 23:32:39 18° ESE visible
03 Jun ? 01:03:26 10° N 01:07:40 48° WNW 01:10:05 23° SW visible
03 Jun ? 23:48:34 10° NNE 23:52:35 33° E 23:54:16 25° SE visible
04 Jun ? 01:25:01 10° N 01:28:53 31° WNW 01:31:42 16° WSW visible
